Weather History for Key West NAF, FL

Change the Weather History Date:

Sunday, March 24, 2013

  Actual Average Record
Temperature  
Mean Temperature 80 °F -  
Max Temperature 86 °F 78 °F 86 °F (1982)
Min Temperature 75 °F 68 °F 57 °F (1968)
Cooling Degree Days 14    
Growing Degree Days 30 (Base 50)    
Moisture  
Dew Point 73 °F    
Average Humidity 83    
Maximum Humidity 94    
Minimum Humidity 65    
Precipitation  
Precipitation 0.00 in - - ()
Sea Level Pressure  
Sea Level Pressure 29.80 in    
Wind  
Wind Speed 10 mph (SSW)    
Max Wind Speed 17 mph    
Max Gust Speed 24 mph    
Visibility 10 miles    
Events      
Averages and records for this station are not official NWS values.
T = Trace of Precipitation, MM = Missing Value Source: NWS Daily Summary

Daily Weather History Graph

Daily Weather History Graph

Search for Another Location

Airport:

Trip Planner

Search our weather history database for the weather conditions in past years. The results will help you decide how hot, cold, wet, or windy it might be!

Date:

Astronomy

Mar. 24, 2013 Rise Set
Actual Time 7:26 AM EDT 7:39 PM EDT
Civil Twilight 7:03 AM EDT 8:02 PM EDT
Nautical Twilight 6:37 AM EDT 8:29 PM EDT
Astronomical Twilight 6:10 AM EDT 8:55 PM EDT
Moon 5:19 PM EDT 5:20 AM EDT
Length of Visible Light 12h 58m
Length of Day
12h 13m
Waxing Gibbous, 91% of the Moon is Illuminated
Mar 24
Waxing Gibbous
Mar 27
Full
Apr 3
Last Quarter
Apr 10
New
Apr 18
First Quarter

Hourly Weather History & Observations

Time (EDT) Temp. Heat Index Dew Point Humidity Pressure Visibility Wind Dir Wind Speed Gust Speed Precip Events Conditions
12:53 AM 75.9 °F - 72.0 °F 87% 29.88 in 10.0 mi South 6.9 mph - N/A   Clear
1:53 AM 75.9 °F - 72.0 °F 87% 29.86 in 10.0 mi South 6.9 mph - N/A   Clear
2:53 AM 75.9 °F - 72.0 °F 87% 29.84 in 10.0 mi South 8.1 mph - N/A   Clear
3:53 AM 75.9 °F - 73.0 °F 91% 29.83 in 10.0 mi South 9.2 mph - N/A   Clear
4:53 AM 75.0 °F - 73.0 °F 94% 29.82 in 10.0 mi South 9.2 mph - N/A   Clear
5:39 AM 75.2 °F - 73.4 °F 94% 29.82 in 10.0 mi South 10.4 mph - N/A   Mostly Cloudy
5:53 AM 75.9 °F - 73.0 °F 91% 29.81 in 10.0 mi SSE 9.2 mph - N/A   Mostly Cloudy
5:57 AM 75.2 °F - 73.4 °F 94% 29.82 in 10.0 mi South 9.2 mph - N/A   Mostly Cloudy
6:53 AM 75.0 °F - 73.0 °F 94% 29.81 in 2.5 mi SSE 9.2 mph - N/A   Partly Cloudy
7:06 AM 75.2 °F - 73.4 °F 94% 29.82 in 10.0 mi SSE 10.4 mph - N/A   Partly Cloudy
7:53 AM 75.9 °F - 73.0 °F 91% 29.82 in 10.0 mi SSE 11.5 mph - N/A   Clear
8:53 AM 77.0 °F - 73.9 °F 90% 29.81 in 10.0 mi South 15.0 mph - N/A   Mostly Cloudy
9:02 AM 77.0 °F - 73.4 °F 89% 29.81 in 10.0 mi South 15.0 mph 21.9 mph N/A   Scattered Clouds
9:53 AM 79.0 °F - 73.0 °F 82% 29.81 in 10.0 mi South 17.3 mph 24.2 mph N/A   Partly Cloudy
10:53 AM 81.0 °F 86.2 °F 73.9 °F 79% 29.81 in 10.0 mi South 16.1 mph 23.0 mph N/A   Clear
11:53 AM 82.0 °F 87.9 °F 73.9 °F 76% 29.80 in 10.0 mi South 17.3 mph 23.0 mph N/A   Clear
12:53 PM 82.0 °F 87.9 °F 73.9 °F 76% 29.78 in 10.0 mi South 15.0 mph 24.2 mph N/A   Clear
1:53 PM 82.9 °F 89.4 °F 73.9 °F 74% 29.79 in 10.0 mi SSW 13.8 mph - N/A   Clear
2:53 PM 84.9 °F 90.7 °F 72.0 °F 65% 29.77 in 10.0 mi SW 15.0 mph - N/A   Clear
3:53 PM 84.0 °F 89.6 °F 72.0 °F 67% 29.74 in 10.0 mi SSW 16.1 mph - N/A   Clear
4:53 PM 84.9 °F 90.7 °F 72.0 °F 65% 29.75 in 10.0 mi WSW 17.3 mph 23.0 mph N/A   Clear
5:53 PM 82.9 °F 87.5 °F 71.1 °F 67% 29.76 in 10.0 mi WSW 16.1 mph - N/A   Scattered Clouds
6:53 PM 80.1 °F 84.2 °F 73.0 °F 79% 29.77 in 10.0 mi WNW 9.2 mph - N/A   Scattered Clouds
7:53 PM 79.0 °F - 71.1 °F 77% 29.77 in 10.0 mi West 6.9 mph - N/A   Clear
8:53 PM 78.1 °F - 73.0 °F 84% 29.79 in 10.0 mi NW 5.8 mph - N/A   Clear
9:53 PM 78.1 °F - 72.0 °F 81% 29.81 in 10.0 mi WNW 3.5 mph - N/A   Clear
10:53 PM 77.0 °F - 72.0 °F 84% 29.81 in 10.0 mi SSW 3.5 mph - N/A   Overcast
11:53 PM 77.0 °F - 73.0 °F 88% 29.81 in 10.0 mi SSW 3.5 mph - N/A   Overcast